Location: Calgary
(51.0833°N, 114.0833°W)
Time: 02:49:39
(UTC-07:00)

N. Korean satellite - Visible Passes

Search period start: 18 November 2018 00:00
Search period end: 28 November 2018 00:00
Orbit: 457 x 511 km, 97.2° (Epoch: 17 November)

Date Brightness Start Highest point End Pass type
(mag) Time Alt. Az. Time Alt. Az. Time Alt. Az.
18 Nov 8.1 06:39:19 10° NNE 06:42:34 38° E 06:45:48 10° SSE visible
18 Nov 7.2 17:19:57 10° SE 17:23:12 33° ENE 17:26:26 10° N visible
18 Nov 9.3 18:53:55 10° SW 18:56:45 21° W 18:59:33 10° NW visible
19 Nov 9.3 06:15:14 10° NE 06:17:55 21° E 06:20:34 10° SE visible
19 Nov 8.1 18:28:44 10° SSW 18:32:06 39° W 18:35:27 10° NNW visible
20 Nov 10.0 05:51:55 10° ENE 05:53:10 12° E 05:54:26 10° ESE visible
20 Nov 6.7 18:03:58 10° S 18:07:32 76° WSW 18:11:05 10° NNW visible
21 Nov 6.8 06:59:05 10° NNE 07:02:31 68° ESE 07:05:57 10° S visible
21 Nov 6.6 17:39:34 10° SSE 17:43:03 55° ENE 17:46:30 10° N visible
21 Nov 10.0 19:15:02 10° WSW 19:16:50 13° W 19:18:38 10° WNW visible
22 Nov 8.3 06:34:45 10° NNE 06:37:56 34° E 06:41:06 10° SSE visible
22 Nov 7.3 17:15:30 10° SE 17:18:38 30° ENE 17:21:44 10° N visible
22 Nov 9.1 18:49:12 10° SSW 18:52:07 23° W 18:55:00 10° NW visible
23 Nov 9.5 06:10:44 10° NE 06:13:16 19° E 06:15:47 10° SE visible
23 Nov 7.8 18:24:05 10° S 18:27:29 43° W 18:30:51 10° NNW visible
24 Nov 10.2 05:47:50 10° ENE 05:48:29 10° E 05:49:09 10° E visible
24 Nov 6.4 07:18:58 10° N 07:22:24 68° WNW 07:25:49 10° SSW visible
24 Nov 6.5 17:59:22 10° SSE 18:02:54 85° WSW 18:06:26 10° NNW visible
25 Nov 7.1 06:54:27 10° NNE 06:57:52 60° E 07:01:17 10° S visible
25 Nov 6.7 17:35:01 10° SSE 17:38:25 49° ENE 17:41:48 10° N visible
25 Nov 9.8 19:10:08 10° SW 19:12:09 15° W 19:14:11 10° NW visible
26 Nov 8.6 06:30:09 10° NNE 06:33:15 31° E 06:36:21 10° SSE visible
26 Nov 7.4 17:11:00 10° SE 17:14:00 27° ENE 17:16:59 10° N visible
26 Nov 8.9 18:44:27 10° SSW 18:47:26 26° W 18:50:24 10° NW visible
27 Nov 9.6 06:06:11 10° NE 06:08:33 17° E 06:10:54 10° SE visible
27 Nov 7.5 18:19:24 10° S 18:22:48 48° W 18:26:11 10° NNW visible
